| time (UTC) | temp F | wind direction | speed MPH | gust MPH | rain 1hr in | rain 24hr in | rain mn in | humidity % | barometer mb |
| 20260831024504 | 78 | 5 | 0.0 | 3.0 | 0.00 | 0.00 | 0.00 | 14 | 1016.7 |
| 20260831024006 | 79 | 47 | 0.0 | 0.0 | 0.00 | 0.00 | 0.00 | 13 | 1016.6 |
| 20260831023504 | 79 | 46 | 0.0 | 1.0 | 0.00 | 0.00 | 0.00 | 13 | 1016.6 |
| 20260831023003 | 80 | 46 | 0.0 | 1.0 | 0.00 | 0.00 | 0.00 | 14 | 1016.6 |
| 20260831022506 | 80 | 45 | 0.0 | 1.0 | 0.00 | 0.00 | 0.00 | 14 | 1016.6 |
| 20260831022002 | 80 | 45 | 0.0 | 1.0 | 0.00 | 0.00 | 0.00 | 14 | 1016.6 |
| 20260831021502 | 81 | 45 | 0.0 | 3.0 | 0.00 | 0.00 | 0.00 | 13 | 1016.5 |
| 20260831021004 | 82 | 39 | 0.0 | 4.0 | 0.00 | 0.00 | 0.00 | 13 | 1016.5 |
| 20260831020504 | 83 | 24 | 1.0 | 4.0 | 0.00 | 0.00 | 0.00 | 12 | 1016.6 |
| 20260831020004 | 84 | 29 | 1.0 | 4.0 | 0.00 | 0.00 | 0.00 | 12 | 1016.5 |
| 20260831015502 | 84 | 40 | 1.0 | 4.0 | 0.00 | 0.00 | 0.00 | 12 | 1016.5 |
| 20260831015001 | 85 | 42 | 1.0 | 5.0 | 0.00 | 0.00 | 0.00 | 12 | 1016.6 |
| 20260831014501 | 85 | 78 | 1.0 | 5.0 | 0.00 | 0.00 | 0.00 | 12 | 1016.6 |
| 20260831014002 | 86 | 350 | 1.0 | 4.0 | 0.00 | 0.00 | 0.00 | 11 | 1016.5 |
| 20260831013600 | 86 | 34 | 2.0 | 5.0 | 0.00 | 0.00 | 0.00 | 12 | 1016.5 |
| 20260831013101 | 86 | 74 | 2.0 | 5.0 | 0.00 | 0.00 | 0.00 | 11 | 1016.4 |
| 20260831012600 | 87 | 49 | 0.0 | 3.0 | 0.00 | 0.00 | 0.00 | 11 | 1016.5 |
| 20260831012102 | 87 | 84 | 0.0 | 5.0 | 0.00 | 0.00 | 0.00 | 11 | 1016.5 |
| 20260831011607 | 86 | 32 | 0.0 | 5.0 | 0.00 | 0.00 | 0.00 | 11 | 1016.5 |
| 20260831011059 | 86 | 190 | 0.0 | 5.0 | 0.00 | 0.00 | 0.00 | 11 | 1016.5 |
| 20260831010559 | 86 | 198 | 2.0 | 5.0 | 0.00 | 0.00 | 0.00 | 11 | 1016.5 |
| 20260831010058 | 88 | 109 | 2.0 | 6.0 | 0.00 | 0.00 | 0.00 | 10 | 1016.5 |
| 20260831005601 | 88 | 24 | 1.0 | 6.0 | 0.00 | 0.00 | 0.00 | 11 | 1016.7 |
| 20260831005057 | 87 | 38 | 2.0 | 6.0 | 0.00 | 0.00 | 0.00 | 11 | 1016.7 |
| 20260831004559 | 87 | 55 | 3.0 | 5.0 | 0.00 | 0.00 | 0.00 | 11 | 1016.7 |
| 20260831004056 | 87 | 68 | 1.0 | 5.0 | 0.00 | 0.00 | 0.00 | 11 | 1016.8 |
| 20260831003555 | 88 | 139 | 1.0 | 5.0 | 0.00 | 0.00 | 0.00 | 10 | 1016.8 |
| 20260831003055 | 88 | 86 | 1.0 | 7.0 | 0.00 | 0.00 | 0.00 | 11 | 1016.8 |
| 20260831002555 | 88 | 300 | 2.0 | 7.0 | 0.00 | 0.00 | 0.00 | 11 | 1016.9 |
| 20260831002055 | 88 | 5 | 3.0 | 7.0 | 0.00 | 0.00 | 0.00 | 11 | 1016.9 |
| 20260831001554 | 88 | 36 | 3.0 | 9.0 | 0.00 | 0.00 | 0.00 | 11 | 1016.9 |
| 20260831001054 | 88 | 67 | 2.0 | 9.0 | 0.00 | 0.00 | 0.00 | 11 | 1016.9 |
| 20260831000554 | 89 | 42 | 5.0 | 9.0 | 0.00 | 0.00 | 0.00 | 10 | 1017.0 |
| 20260831000054 | 89 | 117 | 1.0 | 6.0 | 0.00 | 0.00 | 0.00 | 10 | 1017.0 |
| 20260830235552 | 89 | 40 | 0.0 | 6.0 | 0.00 | 0.00 | 0.00 | 10 | 1017.1 |
| 20260830235053 | 90 | 49 | 2.0 | 7.0 | 0.00 | 0.00 | 0.00 | 11 | 1017.2 |
| 20260830234606 | 90 | 39 | 3.0 | 6.0 | 0.00 | 0.00 | 0.00 | 10 | 1017.1 |
| 20260830234053 | 91 | 355 | 2.0 | 5.0 | 0.00 | 0.00 | 0.00 | 10 | 1017.1 |
| 20260830233550 | 90 | 76 | 0.0 | 5.0 | 0.00 | 0.00 | 0.00 | 10 | 1017.2 |
| 20260830233050 | 89 | 41 | 2.0 | 4.0 | 0.00 | 0.00 | 0.00 | 10 | 1017.3 |
| 20260830232550 | 89 | 58 | 2.0 | 4.0 | 0.00 | 0.00 | 0.00 | 10 | 1017.3 |
| 20260830232049 | 88 | 5 | 0.0 | 4.0 | 0.00 | 0.00 | 0.00 | 10 | 1017.4 |
| 20260830231548 | 89 | 200 | 2.0 | 4.0 | 0.00 | 0.00 | 0.00 | 10 | 1017.4 |
| 20260830231047 | 90 | 57 | 1.0 | 9.0 | 0.00 | 0.00 | 0.00 | 10 | 1017.5 |
| 20260830230546 | 89 | 79 | 3.0 | 9.0 | 0.00 | 0.00 | 0.00 | 10 | 1017.6 |
| 20260830230046 | 89 | 102 | 1.0 | 10.0 | 0.00 | 0.00 | 0.00 | 11 | 1017.7 |
| 20260830225545 | 89 | 71 | 3.0 | 10.0 | 0.00 | 0.00 | 0.00 | 10 | 1017.7 |
| 20260830225043 | 90 | 284 | 2.0 | 6.0 | 0.00 | 0.00 | 0.00 | 10 | 1017.8 |
| 20260830224544 | 90 | 295 | 2.0 | 8.0 | 0.00 | 0.00 | 0.00 | 10 | 1017.9 |
| 20260830224042 | 90 | 348 | 3.0 | 8.0 | 0.00 | 0.00 | 0.00 | 10 | 1018.0 |
| 20260830223542 | 89 | 355 | 3.0 | 8.0 | 0.00 | 0.00 | 0.00 | 10 | 1018.1 |
| 20260830223041 | 90 | 53 | 2.0 | 7.0 | 0.00 | 0.00 | 0.00 | 10 | 1018.3 |
| 20260830222540 | 90 | 16 | 3.0 | 9.0 | 0.00 | 0.00 | 0.00 | 10 | 1018.3 |
| 20260830222040 | 90 | 36 | 4.0 | 9.0 | 0.00 | 0.00 | 0.00 | 10 | 1018.3 |
| 20260830221545 | 89 | 44 | 1.0 | 6.0 | 0.00 | 0.00 | 0.00 | 11 | 1018.4 |
| 20260830221038 | 88 | 331 | 1.0 | 8.0 | 0.00 | 0.00 | 0.00 | 11 | 1018.5 |
| 20260830220537 | 88 | 35 | 2.0 | 13.0 | 0.00 | 0.00 | 0.00 | 11 | 1018.7 |
| 20260830220045 | 89 | 25 | 6.0 | 13.0 | 0.00 | 0.00 | 0.00 | 11 | 1018.8 |
| 20260830215538 | 88 | 59 | 4.0 | 9.0 | 0.00 | 0.00 | 0.00 | 11 | 1018.8 |
| 20260830215035 | 88 | 59 | 3.0 | 8.0 | 0.00 | 0.00 | 0.00 | 11 | 1018.9 |
| 20260830214541 | 88 | 19 | 3.0 | 10.0 | 0.00 | 0.00 | 0.00 | 11 | 1019.0 |
| 20260830214034 | 88 | 350 | 4.0 | 10.0 | 0.00 | 0.00 | 0.00 | 11 | 1019.1 |
| 20260830213533 | 88 | 61 | 4.0 | 10.0 | 0.00 | 0.00 | 0.00 | 11 | 1019.1 |
| 20260830213045 | 87 | 71 | 4.0 | 13.0 | 0.00 | 0.00 | 0.00 | 11 | 1019.2 |
| 20260830212532 | 87 | 44 | 5.0 | 13.0 | 0.00 | 0.00 | 0.00 | 11 | 1019.1 |
| 20260830212032 | 87 | 72 | 4.0 | 9.0 | 0.00 | 0.00 | 0.00 | 11 | 1019.2 |
| 20260830211550 | 87 | 336 | 3.0 | 11.0 | 0.00 | 0.00 | 0.00 | 11 | 1019.4 |
| 20260830211035 | 86 | 17 | 6.0 | 11.0 | 0.00 | 0.00 | 0.00 | 11 | 1019.4 |
| 20260830210531 | 87 | 89 | 4.0 | 12.0 | 0.00 | 0.00 | 0.00 | 11 | 1019.4 |
| 20260830210048 | 87 | 28 | 5.0 | 14.0 | 0.00 | 0.00 | 0.00 | 11 | 1019.5 |
| 20260830205529 | 87 | 51 | 5.0 | 14.0 | 0.00 | 0.00 | 0.00 | 11 | 1019.5 |
| 20260830205028 | 86 | 42 | 3.0 | 10.0 | 0.00 | 0.00 | 0.00 | 11 | 1019.6 |
| 20260830204527 | 85 | 360 | 2.0 | 9.0 | 0.00 | 0.00 | 0.00 | 12 | 1019.6 |
| 20260830204027 | 86 | 44 | 4.0 | 10.0 | 0.00 | 0.00 | 0.00 | 11 | 1019.8 |
| 20260830203529 | 85 | 61 | 3.0 | 10.0 | 0.00 | 0.00 | 0.00 | 12 | 1019.8 |
| 20260830203039 | 85 | 36 | 4.0 | 11.0 | 0.00 | 0.00 | 0.00 | 12 | 1019.9 |
| 20260830202526 | 85 | 82 | 5.0 | 11.0 | 0.00 | 0.00 | 0.00 | 12 | 1020.1 |
| 20260830202028 | 84 | 57 | 4.0 | 10.0 | 0.00 | 0.00 | 0.00 | 12 | 1019.9 |
| 20260830201526 | 84 | 128 | 4.0 | 11.0 | 0.00 | 0.00 | 0.00 | 12 | 1020.0 |
| 20260830201025 | 84 | 49 | 3.0 | 11.0 | 0.00 | 0.00 | 0.00 | 12 | 1020.1 |
| 20260830200525 | 85 | 61 | 5.0 | 11.0 | 0.00 | 0.00 | 0.00 | 12 | 1020.2 |
| 20260830200025 | 87 | 50 | 2.0 | 7.0 | 0.00 | 0.00 | 0.00 | 11 | 1020.1 |
| 20260830195523 | 86 | 79 | 3.0 | 10.0 | 0.00 | 0.00 | 0.00 | 12 | 1020.2 |
| 20260830195022 | 85 | 355 | 3.0 | 10.0 | 0.00 | 0.00 | 0.00 | 12 | 1020.4 |
| 20260830194521 | 84 | 60 | 3.0 | 11.0 | 0.00 | 0.00 | 0.00 | 12 | 1020.5 |
| 20260830194023 | 84 | 17 | 5.0 | 11.0 | 0.00 | 0.00 | 0.00 | 12 | 1020.5 |
| 20260830193523 | 85 | 51 | 5.0 | 11.0 | 0.00 | 0.00 | 0.00 | 12 | 1020.5 |
| 20260830193022 | 84 | 34 | 2.0 | 9.0 | 0.00 | 0.00 | 0.00 | 12 | 1020.6 |
| 20260830192519 | 83 | 94 | 2.0 | 6.0 | 0.00 | 0.00 | 0.00 | 13 | 1020.7 |
| 20260830192019 | 82 | 28 | 1.0 | 7.0 | 0.00 | 0.00 | 0.00 | 13 | 1020.8 |
| 20260830191523 | 82 | 49 | 2.0 | 9.0 | 0.00 | 0.00 | 0.00 | 13 | 1020.9 |
| 20260830191018 | 82 | 81 | 3.0 | 9.0 | 0.00 | 0.00 | 0.00 | 13 | 1020.9 |
| 20260830190518 | 81 | 49 | 2.0 | 9.0 | 0.00 | 0.00 | 0.00 | 13 | 1021.0 |
| 20260830190018 | 81 | 60 | 3.0 | 9.0 | 0.00 | 0.00 | 0.00 | 13 | 1021.1 |
| 20260830185518 | 81 | 97 | 3.0 | 9.0 | 0.00 | 0.00 | 0.00 | 13 | 1021.3 |
| 20260830185017 | 81 | 26 | 2.0 | 10.0 | 0.00 | 0.00 | 0.00 | 13 | 1021.3 |
| 20260830184516 | 82 | 80 | 4.0 | 10.0 | 0.00 | 0.00 | 0.00 | 13 | 1021.4 |
| 20260830184017 | 82 | 51 | 2.0 | 7.0 | 0.00 | 0.00 | 0.00 | 13 | 1021.4 |
| 20260830183519 | 82 | 53 | 1.0 | 9.0 | 0.00 | 0.00 | 0.00 | 13 | 1021.4 |
| 20260830183015 | 81 | 34 | 1.0 | 7.0 | 0.00 | 0.00 | 0.00 | 13 | 1021.4 |
| 20260830182513 | 81 | 42 | 2.0 | 6.0 | 0.00 | 0.00 | 0.00 | 14 | 1021.5 |
| 20260830182014 | 80 | 67 | 2.0 | 7.0 | 0.00 | 0.00 | 0.00 | 14 | 1021.6 |
| 20260830181512 | 79 | 40 | 4.0 | 8.0 | 0.00 | 0.00 | 0.00 | 14 | 1021.6 |
| 20260830181010 | 78 | 55 | 3.0 | 6.0 | 0.00 | 0.00 | 0.00 | 15 | 1021.7 |
| 20260830180512 | 78 | 67 | 3.0 | 8.0 | 0.00 | 0.00 | 0.00 | 14 | 1021.7 |
| 20260830180019 | 78 | 87 | 3.0 | 8.0 | 0.00 | 0.00 | 0.00 | 15 | 1021.8 |
| 20260830175508 | 78 | 67 | 0.0 | 5.0 | 0.00 | 0.00 | 0.00 | 17 | 1021.8 |
| 20260830175009 | 77 | 30 | 1.0 | 5.0 | 0.00 | 0.00 | 0.00 | 17 | 1021.8 |
| 20260830174506 | 77 | 123 | 1.0 | 8.0 | 0.00 | 0.00 | 0.00 | 17 | 1021.8 |
| 20260830174008 | 76 | 80 | 3.0 | 8.0 | 0.00 | 0.00 | 0.00 | 17 | 1021.9 |
| 20260830173507 | 76 | 44 | 2.0 | 4.0 | 0.00 | 0.00 | 0.00 | 18 | 1022.0 |
| 20260830173004 | 75 | 344 | 1.0 | 4.0 | 0.00 | 0.00 | 0.00 | 21 | 1021.9 |
| 20260830172503 | 74 | 64 | 0.0 | 4.0 | 0.00 | 0.00 | 0.00 | 21 | 1021.9 |
| 20260830172003 | 74 | 5 | 1.0 | 4.0 | 0.00 | 0.00 | 0.00 | 20 | 1021.9 |
| 20260830171503 | 74 | 328 | 2.0 | 4.0 | 0.00 | 0.00 | 0.00 | 20 | 1021.9 |
| 20260830171003 | 74 | 321 | 0.0 | 5.0 | 0.00 | 0.00 | 0.00 | 20 | 1022.0 |
| 20260830170502 | 74 | 21 | 2.0 | 6.0 | 0.00 | 0.00 | 0.00 | 21 | 1021.9 |
| 20260830170101 | 72 | 5 | 3.0 | 6.0 | 0.00 | 0.00 | 0.00 | 21 | 1021.9 |
| 20260830165601 | 71 | 271 | 1.0 | 5.0 | 0.00 | 0.00 | 0.00 | 24 | 1021.9 |
| 20260830165059 | 70 | 257 | 0.0 | 8.0 | 0.00 | 0.00 | 0.00 | 25 | 1022.0 |
| 20260830164601 | 70 | 325 | 2.0 | 8.0 | 0.00 | 0.00 | 0.00 | 25 | 1021.9 |
| 20260830164101 | 71 | 327 | 1.0 | 9.0 | 0.00 | 0.00 | 0.00 | 25 | 1021.9 |
| 20260830163601 | 72 | 360 | 5.0 | 9.0 | 0.00 | 0.00 | 0.00 | 24 | 1021.9 |
| 20260830163059 | 71 | 22 | 2.0 | 8.0 | 0.00 | 0.00 | 0.00 | 25 | 1021.9 |
| 20260830162556 | 71 | 351 | 3.0 | 6.0 | 0.00 | 0.00 | 0.00 | 27 | 1021.9 |
| 20260830162054 | 70 | 355 | 3.0 | 6.0 | 0.00 | 0.00 | 0.00 | 28 | 1022.0 |
| 20260830161606 | 69 | 46 | 2.0 | 5.0 | 0.00 | 0.00 | 0.00 | 28 | 1022.0 |
| 20260830161058 | 68 | 360 | 2.0 | 6.0 | 0.00 | 0.00 | 0.00 | 29 | 1022.0 |
| 20260830160556 | 67 | 355 | 3.0 | 8.0 | 0.00 | 0.00 | 0.00 | 31 | 1022.0 |
| 20260830160052 | 67 | 256 | 4.0 | 8.0 | 0.00 | 0.00 | 0.00 | 33 | 1022.0 |
| 20260830155552 | 67 | 294 | 3.0 | 7.0 | 0.00 | 0.00 | 0.00 | 32 | 1022.1 |
| 20260830155051 | 67 | 355 | 2.0 | 7.0 | 0.00 | 0.00 | 0.00 | 33 | 1022.1 |
| 20260830154551 | 67 | 273 | 4.0 | 7.0 | 0.00 | 0.00 | 0.00 | 32 | 1022.2 |
| 20260830154050 | 67 | 330 | 3.0 | 7.0 | 0.00 | 0.00 | 0.00 | 32 | 1022.1 |
| 20260830153549 | 66 | 250 | 3.0 | 7.0 | 0.00 | 0.00 | 0.00 | 33 | 1022.1 |
| 20260830153056 | 66 | 360 | 3.0 | 8.0 | 0.00 | 0.00 | 0.00 | 32 | 1022.2 |
| 20260830152551 | 66 | 295 | 2.0 | 6.0 | 0.00 | 0.00 | 0.00 | 32 | 1022.2 |
| 20260830152048 | 66 | 326 | 2.0 | 5.0 | 0.00 | 0.00 | 0.00 | 32 | 1022.2 |
| 20260830151551 | 65 | 347 | 3.0 | 5.0 | 0.00 | 0.00 | 0.00 | 32 | 1022.1 |
| 20260830151047 | 64 | 5 | 1.0 | 6.0 | 0.00 | 0.00 | 0.00 | 33 | 1022.1 |
| 20260830150547 | 64 | 315 | 2.0 | 8.0 | 0.00 | 0.00 | 0.00 | 34 | 1022.1 |
| 20260830150048 | 63 | 277 | 1.0 | 9.0 | 0.00 | 0.00 | 0.00 | 34 | 1022.1 |
| 20260830145546 | 63 | 246 | 3.0 | 9.0 | 0.00 | 0.00 | 0.00 | 32 | 1022.0 |
| 20260830145045 | 63 | 261 | 4.0 | 10.0 | 0.00 | 0.00 | 0.00 | 32 | 1022.0 |
| 20260830144545 | 63 | 274 | 5.0 | 10.0 | 0.00 | 0.00 | 0.00 | 32 | 1021.9 |
| 20260830144043 | 63 | 266 | 4.0 | 9.0 | 0.00 | 0.00 | 0.00 | 31 | 1021.9 |
| 20260830143543 | 63 | 261 | 3.0 | 9.0 | 0.00 | 0.00 | 0.00 | 31 | 1021.9 |
| 20260830143053 | 63 | 283 | 6.0 | 9.0 | 0.00 | 0.00 | 0.00 | 30 | 1021.9 |
| 20260830142543 | 63 | 252 | 4.0 | 9.0 | 0.00 | 0.00 | 0.00 | 30 | 1021.9 |
| 20260830142046 | 62 | 213 | 4.0 | 8.0 | 0.00 | 0.00 | 0.00 | 30 | 1021.7 |
| 20260830141542 | 62 | 223 | 2.0 | 5.0 | 0.00 | 0.00 | 0.00 | 31 | 1021.7 |
| 20260830141044 | 62 | 235 | 3.0 | 5.0 | 0.00 | 0.00 | 0.00 | 31 | 1021.7 |
| 20260830140541 | 61 | 248 | 2.0 | 7.0 | 0.00 | 0.00 | 0.00 | 30 | 1021.6 |
| 20260830140042 | 61 | 234 | 3.0 | 7.0 | 0.00 | 0.00 | 0.00 | 30 | 1021.5 |
| 20260830135540 | 61 | 215 | 3.0 | 6.0 | 0.00 | 0.00 | 0.00 | 30 | 1021.5 |
| 20260830135040 | 61 | 247 | 3.0 | 5.0 | 0.00 | 0.00 | 0.00 | 30 | 1021.5 |
| 20260830134542 | 60 | 236 | 3.0 | 5.0 | 0.00 | 0.00 | 0.00 | 30 | 1021.5 |
| 20260830134038 | 60 | 232 | 3.0 | 4.0 | 0.00 | 0.00 | 0.00 | 30 | 1021.4 |
| 20260830133637 | 60 | 236 | 1.0 | 5.0 | 0.00 | 0.00 | 0.00 | 31 | 1021.4 |
| 20260830133037 | 59 | 248 | 2.0 | 5.0 | 0.00 | 0.00 | 0.00 | 30 | 1021.4 |
| 20260830132537 | 60 | 234 | 2.0 | 7.0 | 0.00 | 0.00 | 0.00 | 30 | 1021.4 |
| 20260830132039 | 59 | 230 | 3.0 | 8.0 | 0.00 | 0.00 | 0.00 | 30 | 1021.3 |
| 20260830131540 | 58 | 225 | 4.0 | 8.0 | 0.00 | 0.00 | 0.00 | 32 | 1021.3 |
| 20260830131036 | 57 | 246 | 2.0 | 6.0 | 0.00 | 0.00 | 0.00 | 32 | 1021.2 |
| 20260830130536 | 57 | 260 | 3.0 | 6.0 | 0.00 | 0.00 | 0.00 | 33 | 1021.2 |
| 20260830130051 | 56 | 242 | 1.0 | 3.0 | 0.00 | 0.00 | 0.00 | 33 | 1021.2 |
| 20260830125534 | 57 | 265 | 0.0 | 1.0 | 0.00 | 0.00 | 0.00 | 33 | 1021.1 |
| 20260830125034 | 58 | 265 | 0.0 | 2.0 | 0.00 | 0.00 | 0.00 | 32 | 1021.2 |
| 20260830124533 | 58 | 265 | 0.0 | 2.0 | 0.00 | 0.00 | 0.00 | 32 | 1021.1 |
| 20260830124033 | 58 | 265 | 0.0 | 2.0 | 0.00 | 0.00 | 0.00 | 32 | 1021.1 |
| 20260830123535 | 58 | 263 | 0.0 | 1.0 | 0.00 | 0.00 | 0.00 | 32 | 1021.0 |
| 20260830123033 | 58 | 263 | 0.0 | 2.0 | 0.00 | 0.00 | 0.00 | 32 | 1021.0 |
| 20260830122534 | 58 | 263 | 0.0 | 2.0 | 0.00 | 0.00 | 0.00 | 32 | 1020.9 |
| 20260830122031 | 58 | 263 | 0.0 | 2.0 | 0.00 | 0.00 | 0.00 | 31 | 1021.0 |
| 20260830121532 | 59 | 263 | 0.0 | 2.0 | 0.00 | 0.00 | 0.00 | 31 | 1020.9 |
| 20260830121032 | 59 | 263 | 0.0 | 3.0 | 0.00 | 0.00 | 0.00 | 30 | 1021.0 |
| 20260830120532 | 59 | 263 | 1.0 | 3.0 | 0.00 | 0.00 | 0.00 | 30 | 1021.0 |
| 20260830120035 | 60 | 263 | 2.0 | 4.0 | 0.00 | 0.00 | 0.00 | 29 | 1021.0 |
| 20260830115533 | 60 | 264 | 2.0 | 5.0 | 0.00 | 0.00 | 0.00 | 29 | 1021.1 |
| 20260830115031 | 60 | 284 | 2.0 | 6.0 | 0.00 | 0.00 | 0.00 | 29 | 1021.0 |
| 20260830114602 | 59 | 264 | 3.0 | 5.0 | 0.00 | 0.00 | 0.00 | 31 | 1021.0 |
| 20260830114030 | 58 | 258 | 2.0 | 4.0 | 0.00 | 0.00 | 0.00 | 32 | 1020.9 |
| 20260830113531 | 57 | 217 | 0.0 | 2.0 | 0.00 | 0.00 | 0.00 | 32 | 1020.9 |
| 20260830113030 | 56 | 217 | 0.0 | 3.0 | 0.00 | 0.00 | 0.00 | 32 | 1021.0 |
| 20260830112528 | 56 | 217 | 1.0 | 3.0 | 0.00 | 0.00 | 0.00 | 32 | 1020.9 |
| 20260830112028 | 56 | 204 | 2.0 | 4.0 | 0.00 | 0.00 | 0.00 | 32 | 1020.9 |
| 20260830111528 | 56 | 205 | 1.0 | 4.0 | 0.00 | 0.00 | 0.00 | 32 | 1020.9 |
| 20260830111028 | 56 | 208 | 2.0 | 3.0 | 0.00 | 0.00 | 0.00 | 32 | 1020.8 |
| 20260830110526 | 56 | 202 | 0.0 | 3.0 | 0.00 | 0.00 | 0.00 | 32 | 1020.8 |
| 20260830110027 | 56 | 202 | 1.0 | 3.0 | 0.00 | 0.00 | 0.00 | 32 | 1020.8 |
| 20260830105526 | 57 | 240 | 1.0 | 3.0 | 0.00 | 0.00 | 0.00 | 33 | 1020.9 |
| 20260830105025 | 57 | 271 | 0.0 | 2.0 | 0.00 | 0.00 | 0.00 | 33 | 1020.9 |
| 20260830104527 | 57 | 271 | 0.0 | 3.0 | 0.00 | 0.00 | 0.00 | 32 | 1020.8 |
| 20260830104024 | 57 | 214 | 1.0 | 3.0 | 0.00 | 0.00 | 0.00 | 32 | 1020.8 |
| 20260830103524 | 57 | 242 | 1.0 | 3.0 | 0.00 | 0.00 | 0.00 | 33 | 1020.7 |
| 20260830103023 | 57 | 346 | 0.0 | 2.0 | 0.00 | 0.00 | 0.00 | 32 | 1020.7 |
| 20260830102526 | 58 | 5 | 0.0 | 2.0 | 0.00 | 0.00 | 0.00 | 32 | 1020.7 |
| 20260830102025 | 58 | 5 | 0.0 | 2.0 | 0.00 | 0.00 | 0.00 | 31 | 1020.7 |
| 20260830101520 | 58 | 24 | 0.0 | 2.0 | 0.00 | 0.00 | 0.00 | 29 | 1020.7 |
| 20260830101021 | 59 | 86 | 0.0 | 2.0 | 0.00 | 0.00 | 0.00 | 29 | 1020.7 |
| 20260830100518 | 59 | 85 | 0.0 | 2.0 | 0.00 | 0.00 | 0.00 | 29 | 1020.7 |
| 20260830100018 | 59 | 85 | 1.0 | 3.0 | 0.00 | 0.00 | 0.00 | 28 | 1020.6 |
| 20260830095518 | 60 | 121 | 0.0 | 3.0 | 0.00 | 0.00 | 0.00 | 28 | 1020.6 |
| 20260830095019 | 59 | 188 | 1.0 | 3.0 | 0.00 | 0.00 | 0.00 | 28 | 1020.6 |
| 20260830094518 | 59 | 261 | 1.0 | 3.0 | 0.00 | 0.00 | 0.00 | 29 | 1020.6 |
| 20260830094016 | 60 | 286 | 0.0 | 1.0 | 0.00 | 0.00 | 0.00 | 27 | 1020.6 |
| 20260830093514 | 60 | 286 | 0.0 | 6.0 | 0.00 | 0.00 | 0.00 | 28 | 1020.6 |
| 20260830093016 | 60 | 286 | 2.0 | 6.0 | 0.00 | 0.00 | 0.00 | 28 | 1020.7 |
| 20260830092513 | 60 | 221 | 1.0 | 2.0 | 0.00 | 0.00 | 0.00 | 28 | 1020.6 |
| 20260830092013 | 61 | 214 | 0.0 | 2.0 | 0.00 | 0.00 | 0.00 | 28 | 1020.6 |
| 20260830091512 | 61 | 212 | 1.0 | 4.0 | 0.00 | 0.00 | 0.00 | 27 | 1020.6 |
| 20260830091012 | 61 | 207 | 1.0 | 4.0 | 0.00 | 0.00 | 0.00 | 27 | 1020.6 |
| 20260830090511 | 62 | 203 | 1.0 | 5.0 | 0.00 | 0.00 | 0.00 | 27 | 1020.5 |
| 20260830090017 | 62 | 255 | 1.0 | 7.0 | 0.00 | 0.00 | 0.00 | 27 | 1020.4 |
| 20260830085508 | 63 | 257 | 3.0 | 8.0 | 0.00 | 0.00 | 0.00 | 26 | 1020.5 |
| 20260830085008 | 63 | 269 | 4.0 | 9.0 | 0.00 | 0.00 | 0.00 | 26 | 1020.4 |
| 20260830084507 | 64 | 292 | 5.0 | 9.0 | 0.00 | 0.00 | 0.00 | 26 | 1020.5 |
| 20260830084007 | 65 | 330 | 2.0 | 8.0 | 0.00 | 0.00 | 0.00 | 24 | 1020.4 |
| 20260830083507 | 64 | 233 | 2.0 | 7.0 | 0.00 | 0.00 | 0.00 | 25 | 1020.2 |
| 20260830083006 | 63 | 257 | 2.0 | 7.0 | 0.00 | 0.00 | 0.00 | 26 | 1020.2 |
| 20260830082506 | 64 | 319 | 2.0 | 8.0 | 0.00 | 0.00 | 0.00 | 26 | 1020.2 |
| 20260830082010 | 65 | 335 | 2.0 | 7.0 | 0.00 | 0.00 | 0.00 | 23 | 1020.2 |
| 20260830081506 | 65 | 210 | 2.0 | 6.0 | 0.00 | 0.00 | 0.00 | 23 | 1020.1 |
| 20260830081006 | 66 | 224 | 3.0 | 7.0 | 0.00 | 0.00 | 0.00 | 23 | 1020.2 |
| 20260830080506 | 65 | 202 | 4.0 | 7.0 | 0.00 | 0.00 | 0.00 | 23 | 1020.1 |
| 20260830080006 | 65 | 197 | 4.0 | 6.0 | 0.00 | 0.00 | 0.00 | 23 | 1020.1 |
| 20260830075506 | 64 | 207 | 3.0 | 5.0 | 0.00 | 0.00 | 0.00 | 25 | 1020.1 |
| 20260830075005 | 65 | 211 | 4.0 | 6.0 | 0.00 | 0.00 | 0.00 | 24 | 1020.2 |
| 20260830074505 | 64 | 177 | 2.0 | 4.0 | 0.00 | 0.00 | 0.00 | 25 | 1020.2 |
| 20260830074004 | 63 | 167 | 2.0 | 5.0 | 0.00 | 0.00 | 0.00 | 27 | 1020.3 |
| 20260830073502 | 63 | 11 | 0.0 | 2.0 | 0.00 | 0.00 | 0.00 | 27 | 1020.4 |
| 20260830073002 | 64 | 9 | 0.0 | 4.0 | 0.00 | 0.00 | 0.00 | 27 | 1020.3 |
| 20260830072503 | 64 | 9 | 0.0 | 4.0 | 0.00 | 0.00 | 0.00 | 27 | 1020.2 |
| 20260830072100 | 65 | 323 | 2.0 | 4.0 | 0.00 | 0.00 | 0.00 | 25 | 1020.3 |
| 20260830071604 | 65 | 211 | 1.0 | 3.0 | 0.00 | 0.00 | 0.00 | 25 | 1020.0 |
| 20260830071056 | 66 | 207 | 2.0 | 5.0 | 0.00 | 0.00 | 0.00 | 24 | 1020.1 |
| 20260830070558 | 68 | 192 | 2.0 | 7.0 | 0.00 | 0.00 | 0.00 | 23 | 1020.1 |
| 20260830070054 | 67 | 212 | 3.0 | 9.0 | 0.00 | 0.00 | 0.00 | 23 | 1020.1 |
| 20260830065553 | 67 | 261 | 5.0 | 9.0 | 0.00 | 0.00 | 0.00 | 24 | 1020.0 |
| 20260830065053 | 66 | 240 | 2.0 | 7.0 | 0.00 | 0.00 | 0.00 | 26 | 1020.0 |
| 20260830064557 | 66 | 306 | 3.0 | 8.0 | 0.00 | 0.00 | 0.00 | 27 | 1020.0 |
| 20260830064055 | 66 | 265 | 4.0 | 7.0 | 0.00 | 0.00 | 0.00 | 27 | 1020.0 |
| 20260830063552 | 66 | 287 | 3.0 | 6.0 | 0.00 | 0.00 | 0.00 | 27 | 1020.0 |
| 20260830063052 | 67 | 344 | 2.0 | 8.0 | 0.00 | 0.00 | 0.00 | 26 | 1020.0 |
| 20260830062555 | 68 | 14 | 4.0 | 8.0 | 0.00 | 0.00 | 0.00 | 26 | 1019.9 |
| 20260830062052 | 69 | 32 | 1.0 | 9.0 | 0.00 | 0.00 | 0.00 | 24 | 1019.9 |
| 20260830061552 | 69 | 292 | 3.0 | 9.0 | 0.00 | 0.00 | 0.00 | 24 | 1019.9 |
| 20260830061051 | 69 | 254 | 4.0 | 9.0 | 0.00 | 0.00 | 0.00 | 24 | 1019.8 |
| 20260830060551 | 69 | 207 | 4.0 | 8.0 | 0.00 | 0.00 | 0.00 | 23 | 1019.8 |
| 20260830060051 | 69 | 197 | 5.0 | 11.0 | 0.00 | 0.00 | 0.00 | 24 | 1019.8 |
| 20260830055551 | 69 | 211 | 6.0 | 11.0 | 0.00 | 0.00 | 0.00 | 24 | 1019.7 |
| 20260830055051 | 69 | 198 | 6.0 | 10.0 | 0.00 | 0.00 | 0.00 | 24 | 1019.6 |
| 20260830054550 | 70 | 190 | 6.0 | 10.0 | 0.00 | 0.00 | 0.00 | 24 | 1019.6 |
| 20260830054050 | 70 | 218 | 6.0 | 11.0 | 0.00 | 0.00 | 0.00 | 24 | 1019.5 |
| 20260830053549 | 70 | 209 | 7.0 | 12.0 | 0.00 | 0.00 | 0.00 | 24 | 1019.6 |
| 20260830053052 | 70 | 208 | 7.0 | 12.0 | 0.00 | 0.00 | 0.00 | 24 | 1019.7 |
| 20260830052549 | 70 | 191 | 7.0 | 12.0 | 0.00 | 0.00 | 0.00 | 24 | 1019.8 |
| 20260830052051 | 71 | 238 | 7.0 | 14.0 | 0.00 | 0.00 | 0.00 | 23 | 1019.9 |
| 20260830051558 | 71 | 193 | 7.0 | 12.0 | 0.00 | 0.00 | 0.00 | 23 | 1019.9 |
| 20260830051049 | 71 | 209 | 6.0 | 12.0 | 0.00 | 0.00 | 0.00 | 23 | 1020.0 |
| 20260830050549 | 71 | 207 | 6.0 | 9.0 | 0.00 | 0.00 | 0.00 | 23 | 1020.1 |
| 20260830050056 | 71 | 220 | 6.0 | 11.0 | 0.00 | 0.00 | 0.00 | 23 | 1020.1 |
| 20260830045548 | 71 | 236 | 6.0 | 11.0 | 0.00 | 0.00 | 0.00 | 23 | 1020.2 |
| 20260830045051 | 71 | 215 | 5.0 | 10.0 | 0.00 | 0.00 | 0.00 | 23 | 1020.3 |
| 20260830044557 | 71 | 232 | 6.0 | 10.0 | 0.00 | 0.00 | 0.00 | 23 | 1020.3 |
| 20260830044047 | 71 | 250 | 3.0 | 10.0 | 0.00 | 0.00 | 0.00 | 23 | 1020.3 |
| 20260830043547 | 72 | 252 | 4.0 | 8.0 | 0.00 | 0.00 | 0.00 | 22 | 1020.3 |
| 20260830043053 | 72 | 243 | 4.0 | 9.0 | 0.00 | 0.00 | 0.00 | 22 | 1020.2 |
| 20260830042547 | 72 | 210 | 3.0 | 9.0 | 0.00 | 0.00 | 0.00 | 22 | 1020.1 |
| 20260830042047 | 72 | 238 | 3.0 | 10.0 | 0.00 | 0.00 | 0.00 | 22 | 1020.1 |
| 20260830041555 | 72 | 234 | 4.0 | 10.0 | 0.00 | 0.00 | 0.00 | 21 | 1020.0 |
| 20260830041047 | 72 | 234 | 5.0 | 9.0 | 0.00 | 0.00 | 0.00 | 21 | 1019.8 |
| 20260830040546 | 73 | 198 | 3.0 | 11.0 | 0.00 | 0.00 | 0.00 | 21 | 1019.8 |
| 20260830040107 | 73 | 264 | 5.0 | 13.0 | 0.00 | 0.00 | 0.00 | 20 | 1019.7 |
| 20260830035546 | 74 | 213 | 7.0 | 14.0 | 0.00 | 0.00 | 0.00 | 20 | 1019.6 |
| 20260830035048 | 74 | 244 | 7.0 | 15.0 | 0.00 | 0.00 | 0.00 | 20 | 1019.5 |
| 20260830034546 | 74 | 254 | 7.0 | 15.0 | 0.00 | 0.00 | 0.00 | 19 | 1019.4 |
| 20260830034046 | 74 | 277 | 8.0 | 14.0 | 0.00 | 0.00 | 0.00 | 19 | 1019.4 |
| 20260830033547 | 74 | 238 | 5.0 | 13.0 | 0.00 | 0.00 | 0.00 | 19 | 1019.3 |
| 20260830033047 | 75 | 228 | 6.0 | 14.0 | 0.00 | 0.00 | 0.00 | 19 | 1019.2 |
| 20260830032545 | 75 | 211 | 5.0 | 14.0 | 0.00 | 0.00 | 0.00 | 18 | 1019.1 |
| 20260830032044 | 75 | 266 | 7.0 | 13.0 | 0.00 | 0.00 | 0.00 | 18 | 1019.1 |
| 20260830031547 | 75 | 240 | 6.0 | 12.0 | 0.00 | 0.00 | 0.00 | 18 | 1019.0 |
| 20260830031044 | 76 | 242 | 6.0 | 11.0 | 0.00 | 0.00 | 0.00 | 17 | 1018.9 |
| 20260830030543 | 76 | 255 | 4.0 | 8.0 | 0.00 | 0.00 | 0.00 | 17 | 1018.9 |
| 20260830030044 | 76 | 240 | 5.0 | 8.0 | 0.00 | 0.00 | 0.00 | 17 | 1018.9 |
| 20260830025544 | 76 | 210 | 2.0 | 9.0 | 0.00 | 0.00 | 0.00 | 17 | 1018.8 |
| 20260830025044 | 77 | 237 | 4.0 | 15.0 | 0.00 | 0.00 | 0.00 | 17 | 1018.9 |